GW0408 Weather Reports


time (UTC)temp
C
wind
direction
speed
KPH
gust
KPH
rain 1hr
cm
rain 24hr
cm
rain mn
cm
humidity
%
barometer
mb
20260507140601 13 117 3.2 8.0 0.00 0.66 0.56 100 1009.5
20260507135819 13 220 1.6 4.8 0.00 0.66 0.56 100 1009.4
20260507135103 13 223 1.6 4.8 0.00 0.66 0.56 100 1009.2
20260507134602 13 212 1.6 3.2 0.00 0.66 0.56 100 1009.1
20260507134102 13 197 1.6 1.6 0.00 0.66 0.56 100 1009.2
20260507133602 13 213 1.6 4.8 0.00 0.66 0.56 100 1009.2
20260507133323 13 109 3.2 4.8 0.00 0.66 0.56 100 1009.2
20260507132604 13 211 3.2 6.4 0.03 0.66 0.56 100 1009.1
20260507132104 13 36 3.2 6.4 0.03 0.66 0.56 100 1009.4
20260507131604 13 253 3.2 4.8 0.03 0.66 0.56 100 1009.4
20260507131102 13 206 3.2 4.8 0.03 0.66 0.56 100 1009.3
20260507130549 13 190 3.2 6.4 0.03 0.66 0.56 100 1009.2
20260507130532 13 215 1.6 6.4 0.05 0.66 0.56 100 1009.2
20260507125549 13 286 1.6 6.4 0.05 0.66 0.56 100 1009.1
20260507125047 13 207 3.2 4.8 0.05 0.66 0.56 100 1008.9
20260507124549 13 232 1.6 4.8 0.05 0.66 0.53 100 1008.8
20260507124050 13 42 3.2 6.4 0.05 0.66 0.53 100 1009.0
20260507123550 13 71 3.2 8.0 0.05 0.66 0.53 100 1009.2
20260507123048 13 218 3.2 8.0 0.08 0.66 0.53 100 1009.1
20260507122548 13 328 3.2 8.0 0.05 0.64 0.53 100 1009.2
20260507122048 13 201 3.2 8.0 0.08 0.64 0.53 100 1009.1
20260507121534 14 211 3.2 6.4 0.08 0.64 0.53 100 1008.9
20260507121254 14 201 3.2 6.4 0.10 0.64 0.51 100 1008.8
20260507120521 14 350 1.6 4.8 0.10 0.64 0.51 100 1008.8
20260507120021 14 209 1.6 4.8 0.10 0.61 0.51 100 1008.9
20260507115521 14 220 3.2 4.8 0.10 0.61 0.51 100 1008.8
20260507115021 14 191 3.2 6.4 0.13 0.61 0.51 100 1008.6
20260507114520 14 196 3.2 6.4 0.13 0.61 0.51 100 1008.6
20260507114243 14 202 1.6 3.2 0.13 0.61 0.51 100 1008.6
20260507113521 14 55 1.6 4.8 0.13 0.61 0.48 100 1008.7
20260507113020 15 9 1.6 4.8 0.13 0.58 0.48 100 1008.8
20260507112518 15 91 1.6 4.8 0.15 0.58 0.48 100 1008.9
20260507112246 15 178 3.2 4.8 0.15 0.56 0.46 100 1008.6
20260507111519 15 209 3.2 3.2 0.20 0.56 0.43 100 1008.4
20260507111005 15 20 3.2 4.8 0.20 0.53 0.43 100 1008.3
20260507110504 15 24 1.6 4.8 0.20 0.53 0.43 100 1008.4
20260507110006 15 0 1.6 4.8 0.18 0.51 0.41 100 1008.1
20260507105505 15 28 1.6 4.8 0.18 0.51 0.41 100 1008.2
20260507105006 15 351 1.6 4.8 0.18 0.48 0.38 100 1008.2
20260507104452 15 89 1.6 4.8 0.15 0.48 0.38 100 1008.1
20260507103950 15 310 1.6 4.8 0.18 0.48 0.38 100 1008.0
20260507103714 15 330 1.6 3.2 0.15 0.48 0.36 100 1007.9
20260507102950 16 99 1.6 4.8 0.15 0.46 0.33 100 1007.8
20260507102719 16 304 1.6 4.8 0.13 0.43 0.33 100 1007.8
20260507101950 16 344 1.6 4.8 0.10 0.41 0.28 100 1007.8
20260507101714 16 184 3.2 4.8 0.05 0.36 0.23 100 1007.9
20260507100950 16 2 3.2 6.4 0.03 0.33 0.20 100 1007.9
20260507100438 17 22 3.2 6.4 0.05 0.33 0.20 100 1007.7
20260507100143 17 248 3.2 6.4 0.05 0.33 0.20 100 1007.7
20260507095423 18 232 3.2 6.4 0.10 0.33 0.20 100 1007.6
20260507094923 18 352 3.2 4.8 0.13 0.33 0.20 100 1007.4
20260507094423 18 225 3.2 6.4 0.13 0.33 0.20 100 1007.3
20260507094143 18 252 3.2 6.4 0.10 0.30 0.20 100 1007.2
20260507093644 19 189 3.2 3.2 0.10 0.30 0.20 100 1007.2
20260507092920 19 213 3.2 3.2 0.10 0.30 0.20 100 1007.2
20260507092631 19 209 3.2 4.8 0.10 0.30 0.18 100 1007.2
20260507091908 19 225 1.6 4.8 0.10 0.30 0.18 100 1007.1
20260507091407 19 0 1.6 3.2 0.10 0.30 0.18 100 1007.0
20260507090853 19 210 1.6 4.8 0.08 0.28 0.18 100 1007.0
20260507090352 19 225 3.2 4.8 0.08 0.28 0.18 100 1006.9
20260507090118 19 215 1.6 4.8 0.05 0.25 0.15 100 1006.9
20260507085352 19 191 1.6 3.2 0.03 0.23 0.10 100 1006.6
20260507084852 19 187 1.6 3.2 0.00 0.20 0.10 100 1006.5
20260507084828 19 178 1.6 3.2 0.00 0.20 0.10 100 1006.7
20260507084109 19 0 3.2 3.2 0.00 0.20 0.10 100 1006.8
20260507083352 19 186 3.2 4.8 0.00 0.20 0.10 100 1006.7
20260507082853 19 190 3.2 4.8 0.00 0.20 0.10 100 1006.8
20260507082354 19 319 3.2 4.8 0.00 0.20 0.10 100 1006.7
20260507081839 19 287 3.2 4.8 0.00 0.20 0.10 100 1006.7
20260507081323 19 170 3.2 4.8 0.00 0.20 0.10 100 1006.8
20260507080823 19 194 3.2 4.8 0.00 0.20 0.10 100 1006.9
20260507080323 19 301 3.2 6.4 0.00 0.20 0.10 100 1006.7
20260507075824 19 319 3.2 6.4 0.00 0.20 0.10 100 1006.6
20260507075325 19 297 3.2 6.4 0.00 0.20 0.10 100 1006.4
20260507074823 19 180 3.2 6.4 0.00 0.20 0.10 100 1006.5
20260507074324 19 177 3.2 9.7 0.00 0.20 0.10 100 1006.5
20260507073823 19 161 4.8 9.7 0.00 0.20 0.10 100 1006.7
20260507073323 19 214 3.2 9.7 0.00 0.20 0.10 100 1006.8
20260507072821 19 205 3.2 4.8 0.00 0.20 0.10 100 1006.9
20260507072321 19 303 3.2 4.8 0.00 0.20 0.10 100 1006.9
20260507071822 19 181 3.2 4.8 0.00 0.20 0.10 100 1006.9
20260507071322 19 201 3.2 4.8 0.00 0.20 0.10 100 1007.0
20260507070822 19 320 3.2 4.8 0.00 0.20 0.10 100 1006.9
20260507070322 19 192 3.2 4.8 0.03 0.20 0.10 100 1006.8
20260507070042 19 194 3.2 6.4 0.05 0.20 0.10 100 1006.7
20260507065321 19 173 3.2 6.4 0.08 0.20 0.10 100 1006.8
20260507064822 19 213 3.2 6.4 0.10 0.20 0.10 100 1006.8
20260507064323 19 309 3.2 4.8 0.10 0.20 0.10 100 1006.7
20260507063823 19 163 3.2 9.7 0.10 0.20 0.10 100 1006.6
20260507063322 19 154 3.2 9.7 0.10 0.20 0.10 100 1006.6
20260507062822 19 183 3.2 4.8 0.10 0.20 0.10 100 1006.5
20260507062310 19 201 3.2 4.8 0.10 0.20 0.10 100 1006.6
20260507061810 19 170 3.2 4.8 0.10 0.20 0.10 100 1006.7
20260507061255 20 179 3.2 4.8 0.10 0.20 0.10 100 1006.8
20260507060755 20 309 3.2 6.4 0.08 0.18 0.08 100 1006.9
20260507060255 20 201 3.2 6.4 0.05 0.18 0.05 100 1007.1
20260507055755 20 184 3.2 6.4 0.03 0.15 0.03 99 1007.6
20260507055255 20 230 3.2 6.4 0.00 0.13 0.00 98 1007.6
20260507054755 20 168 3.2 6.4 0.00 0.10 0.00 97 1007.7
20260507054519 20 325 3.2 4.8 0.00 0.10 0.00 96 1007.8
20260507054242 20 231 3.2 4.8 0.00 0.10 0.00 95 1007.9
20260507053256 20 175 3.2 4.8 0.00 0.10 0.00 95 1007.9
20260507052756 20 323 3.2 6.4 0.00 0.10 0.00 94 1008.0
20260507052241 20 286 3.2 6.4 0.00 0.10 0.00 94 1008.1
20260507051740 20 257 3.2 8.0 0.00 0.10 0.00 93 1008.2
20260507051226 21 191 3.2 8.0 0.00 0.10 0.00 93 1008.1
20260507050952 21 209 3.2 3.2 0.00 0.10 0.00 93 1008.1
20260507050226 21 185 3.2 6.4 0.00 0.10 0.00 92 1008.2
20260507045726 21 319 3.2 6.4 0.00 0.10 0.00 91 1008.3
20260507045226 21 245 3.2 4.8 0.00 0.10 0.00 91 1008.3
20260507044726 21 108 3.2 4.8 0.00 0.10 0.00 90 1008.3
20260507044449 21 197 3.2 6.4 0.00 0.10 0.00 90 1008.3
20260507043727 21 209 3.2 6.4 0.00 0.10 0.00 89 1008.1
20260507043227 21 194 3.2 3.2 0.00 0.10 0.00 89 1008.0
20260507042945 21 294 3.2 4.8 0.00 0.10 0.00 89 1007.9
20260507042225 21 239 3.2 4.8 0.00 0.10 0.00 89 1007.8
20260507041726 21 193 3.2 3.2 0.00 0.10 0.00 89 1007.8
20260507041212 21 197 3.2 3.2 0.00 0.10 0.00 89 1007.9
20260507040714 21 188 3.2 3.2 0.00 0.10 0.00 88 1007.9
20260507040213 21 193 3.2 3.2 0.00 0.10 0.00 88 1008.0
20260507035713 21 257 3.2 4.8 0.00 0.10 0.10 88 1008.0
20260507035213 21 200 3.2 4.8 0.00 0.10 0.10 88 1007.9
20260507034714 21 175 3.2 4.8 0.00 0.10 0.10 89 1007.9
20260507034212 21 182 3.2 4.8 0.00 0.10 0.10 88 1008.0
20260507033712 21 189 3.2 4.8 0.00 0.10 0.10 88 1008.0
20260507033212 21 266 3.2 4.8 0.00 0.10 0.10 88 1007.9
20260507032658 21 239 3.2 4.8 0.00 0.10 0.10 88 1007.9
20260507032404 21 215 3.2 3.2 0.00 0.10 0.10 89 1007.8
20260507031643 21 196 3.2 4.8 0.00 0.10 0.10 88 1007.7
20260507031144 21 176 3.2 4.8 0.00 0.10 0.10 88 1007.7
20260507030643 21 189 3.2 3.2 0.00 0.10 0.10 88 1007.8
20260507030144 21 199 3.2 4.8 0.00 0.10 0.10 88 1007.7
20260507025912 21 321 3.2 4.8 0.00 0.10 0.10 88 1007.6
20260507025144 20 331 3.2 4.8 0.00 0.10 0.10 88 1007.7
20260507024644 20 194 3.2 4.8 0.00 0.10 0.10 88 1007.8
20260507024144 20 187 3.2 4.8 0.00 0.10 0.10 89 1007.9
20260507023644 20 210 1.6 4.8 0.00 0.10 0.10 89 1008.0
20260507023143 20 187 1.6 4.8 0.00 0.10 0.10 89 1008.0
20260507022645 20 198 1.6 6.4 0.00 0.10 0.10 89 1008.1
20260507022131 20 294 1.6 6.4 0.00 0.10 0.10 89 1008.1
20260507021855 20 170 1.6 3.2 0.00 0.10 0.10 88 1008.1
20260507021131 20 181 3.2 3.2 0.00 0.10 0.10 88 1008.2
20260507020852 20 328 3.2 3.2 0.00 0.10 0.10 88 1008.1
20260507020132 20 177 3.2 3.2 0.00 0.10 0.10 88 1008.1
20260507015631 21 192 3.2 3.2 0.00 0.10 0.10 87 1008.0
20260507015354 21 194 3.2 3.2 0.00 0.10 0.10 87 1008.0
20260507014631 21 182 3.2 3.2 0.00 0.10 0.10 86 1008.0
20260507014131 21 348 3.2 3.2 0.00 0.10 0.10 86 1008.1
20260507013629 21 183 3.2 3.2 0.00 0.10 0.10 86 1008.1
20260507013129 21 184 3.2 3.2 0.00 0.10 0.10 86 1008.1
20260507012617 21 187 3.2 3.2 0.00 0.10 0.10 86 1008.1
20260507012114 21 182 3.2 3.2 0.00 0.10 0.10 85 1008.0
20260507011838 21 345 3.2 3.2 0.00 0.10 0.10 85 1008.0
20260507011114 21 183 3.2 3.2 0.00 0.10 0.10 85 1007.9
20260507010615 21 186 3.2 3.2 0.00 0.10 0.10 85 1007.9
20260507010333 21 192 3.2 4.8 0.00 0.10 0.10 85 1007.9
20260507005839 21 174 3.2 4.8 0.00 0.10 0.10 84 1008.0
20260507005115 21 93 3.2 4.8 0.00 0.10 0.10 83 1008.0
20260507004616 21 192 3.2 4.8 0.00 0.10 0.10 83 1008.0
20260507004116 22 186 3.2 3.2 0.00 0.10 0.10 83 1008.0
20260507003615 22 182 3.2 3.2 0.00 0.10 0.10 82 1008.0
20260507003340 22 168 3.2 4.8 0.00 0.10 0.10 82 1008.1
20260507002602 22 181 3.2 4.8 0.00 0.10 0.10 81 1008.1
20260507002544 22 199 3.2 3.2 0.00 0.10 0.10 81 1008.1
20260507001602 22 194 3.2 3.2 0.00 0.10 0.10 80 1008.0
20260507001102 22 192 3.2 3.2 0.00 0.10 0.10 80 1007.8
20260507000602 22 194 3.2 6.4 0.00 0.10 0.10 80 1007.7
20260506235602 22 219 3.2 8.0 0.00 0.10 0.10 79 1007.6
20260506235101 22 196 3.2 8.0 0.00 0.10 0.10 78 1007.7
20260506234601 22 228 3.2 8.0 0.00 0.10 0.10 78 1007.7
20260506234533 23 191 3.2 12.9 0.00 0.10 0.10 77 1007.7
20260506233550 23 189 4.8 12.9 0.00 0.10 0.10 76 1007.6
20260506233049 23 193 3.2 9.7 0.00 0.10 0.10 76 1007.6
20260506232548 23 193 3.2 4.8 0.00 0.10 0.10 76 1007.6
20260506232034 23 189 3.2 4.8 0.00 0.10 0.10 76 1007.6
20260506231534 23 186 4.8 6.4 0.00 0.10 0.10 75 1007.5
20260506231034 23 178 4.8 6.4 0.00 0.10 0.10 75 1007.3
20260506230534 23 175 4.8 6.4 0.00 0.10 0.10 75 1007.3
20260506230034 23 309 4.8 6.4 0.00 0.10 0.10 74 1007.4
20260506225534 23 185 4.8 6.4 0.00 0.10 0.10 75 1007.3
20260506225034 23 172 4.8 6.4 0.00 0.10 0.10 75 1007.3
20260506224535 23 310 4.8 6.4 0.00 0.10 0.10 75 1007.3
20260506224032 23 174 4.8 6.4 0.00 0.10 0.10 74 1007.2
20260506223532 23 169 4.8 8.0 0.00 0.10 0.10 74 1007.3
20260506223019 23 168 4.8 8.0 0.00 0.10 0.10 74 1007.3
20260506222504 23 169 4.8 6.4 0.00 0.10 0.10 75 1007.3
20260506222004 23 191 4.8 6.4 0.00 0.10 0.10 75 1007.4
20260506221504 23 176 4.8 6.4 0.00 0.10 0.10 75 1007.4
20260506221225 23 307 4.8 6.4 0.00 0.10 0.10 74 1007.6
20260506220504 23 184 6.4 8.0 0.00 0.10 0.10 74 1007.6
20260506215952 23 178 4.8 8.0 0.00 0.10 0.10 74 1007.8
20260506215707 23 284 4.8 6.4 0.00 0.10 0.10 74 1007.7
20260506214949 23 175 4.8 6.4 0.00 0.10 0.10 74 1007.6
20260506214450 23 179 4.8 6.4 0.00 0.10 0.10 74 1007.5
20260506213949 23 184 4.8 6.4 0.00 0.10 0.10 74 1007.5
20260506213449 23 182 4.8 6.4 0.00 0.10 0.10 74 1007.3
20260506212948 23 170 4.8 6.4 0.00 0.10 0.10 74 1007.3
20260506212448 23 180 4.8 6.4 0.00 0.10 0.10 74 1007.3
20260506211933 23 314 4.8 6.4 0.00 0.10 0.10 74 1007.5
20260506211434 23 174 4.8 6.4 0.00 0.10 0.10 73 1007.5
20260506210934 23 168 6.4 6.4 0.00 0.10 0.10 73 1007.6
20260506210433 23 181 6.4 6.4 0.00 0.10 0.10 73 1007.4
20260506205934 23 175 6.4 6.4 0.00 0.10 0.10 73 1007.6
20260506205434 23 179 6.4 8.0 0.00 0.10 0.10 73 1007.4
20260506204934 23 180 6.4 8.0 0.00 0.10 0.10 72 1007.4
20260506204434 23 168 6.4 8.0 0.00 0.10 0.10 72 1007.0
20260506204158 23 171 4.8 8.0 0.00 0.10 0.10 72 1007.1
20260506203651 23 177 4.8 6.4 0.00 0.10 0.10 73 1007.1
20260506202933 23 341 6.4 8.0 0.00 0.10 0.10 72 1007.1
20260506202432 23 180 6.4 8.0 0.00 0.10 0.10 72 1007.1
20260506201920 23 309 6.4 8.0 0.00 0.10 0.10 72 1007.1
20260506201641 23 172 6.4 8.0 0.00 0.10 0.10 71 1007.1
20260506200920 23 212 6.4 8.0 0.00 0.10 0.10 71 1007.2
20260506200419 23 178 6.4 8.0 0.00 0.10 0.10 70 1007.2
20260506200148 23 175 4.8 6.4 0.00 0.10 0.10 71 1007.2
20260506195420 23 181 4.8 6.4 0.00 0.10 0.10 71 1007.3
20260506195138 23 167 4.8 6.4 0.00 0.10 0.10 72 1007.4
20260506194420 23 166 4.8 6.4 0.00 0.10 0.10 73 1007.5
20260506193920 23 181 4.8 6.4 0.00 0.10 0.10 72 1007.6
20260506193421 23 170 4.8 6.4 0.00 0.10 0.10 72 1007.8
20260506193403 23 191 4.8 6.4 0.00 0.10 0.10 72 1007.9
20260506192627 23 163 4.8 6.4 0.00 0.10 0.10 72 1008.1
20260506191907 23 174 4.8 8.0 0.00 0.10 0.10 72 1008.2
20260506191355 23 300 4.8 8.0 0.00 0.10 0.10 72 1008.4
20260506191111 23 306 4.8 8.0 0.00 0.10 0.10 72 1008.6
20260506190352 23 194 4.8 8.0 0.00 0.10 0.10 72 1008.7
20260506190340 23 182 4.8 6.4 0.00 0.10 0.10 73 1008.7
20260506185351 23 181 4.8 6.4 0.00 0.10 0.10 72 1008.8
20260506185342 22 284 3.2 4.8 0.00 0.10 0.10 73 1008.8
20260506184610 22 188 3.2 4.8 0.00 0.10 0.10 73 1008.9
20260506183851 22 203 3.2 3.2 0.00 0.10 0.10 73 1009.0
20260506183353 22 202 3.2 4.8 0.00 0.10 0.10 73 1009.0
20260506182851 22 199 3.2 6.4 0.00 0.10 0.10 73 1009.2
20260506182337 22 233 3.2 9.7 0.00 0.10 0.10 73 1009.2
20260506181836 22 187 4.8 9.7 0.00 0.10 0.10 72 1009.3
20260506181336 22 240 4.8 9.7 0.00 0.10 0.10 72 1009.2
20260506180824 22 217 4.8 9.7 0.00 0.10 0.10 73 1009.2
20260506180325 22 224 4.8 12.9 0.00 0.10 0.10 72 1009.3
20260506175825 22 174 6.4 14.5 0.00 0.10 0.10 73 1009.2
20260506175325 22 209 4.8 16.1 0.00 0.10 0.10 73 1009.2
20260506174825 22 186 4.8 16.1 0.00 0.10 0.10 74 1009.2
20260506174322 22 210 3.2 8.0 0.00 0.10 0.10 76 1009.2
20260506173822 22 174 3.2 8.0 0.00 0.10 0.10 76 1009.1
20260506173322 21 186 3.2 6.4 0.00 0.10 0.10 76 1009.2
20260506172822 21 190 3.2 6.4 0.00 0.10 0.10 78 1009.2
20260506172322 21 185 3.2 4.8 0.00 0.10 0.10 78 1009.3
20260506171808 21 108 3.2 4.8 0.00 0.10 0.10 78 1009.3
20260506171528 21 189 3.2 4.8 0.00 0.10 0.10 80 1009.1
20260506170809 21 320 3.2 6.4 0.00 0.10 0.10 79 1009.4
20260506170309 20 191 3.2 6.4 0.03 0.10 0.10 81 1009.7
20260506170247 20 191 3.2 6.4 0.05 0.10 0.10 82 1009.9
20260506165309 20 162 3.2 6.4 0.05 0.10 0.10 81 1010.0
20260506165032 20 161 3.2 6.4 0.05 0.10 0.10 83 1010.1
20260506164309 20 163 3.2 4.8 0.05 0.10 0.10 84 1010.1
20260506163811 19 312 3.2 8.0 0.05 0.10 0.10 85 1010.1
20260506163310 19 185 3.2 8.0 0.05 0.10 0.10 85 1010.1
20260506163035 19 156 3.2 4.8 0.05 0.10 0.10 88 1010.3
20260506162310 19 160 3.2 3.2 0.08 0.10 0.10 89 1010.4
20260506161754 19 329 1.6 4.8 0.08 0.10 0.10 89 1010.4
20260506161253 19 182 1.6 4.8 0.08 0.10 0.10 90 1010.4
20260506160756 19 184 3.2 6.4 0.08 0.10 0.10 88 1010.5
20260506160241 20 180 3.2 6.4 0.08 0.10 0.10 85 1010.6
20260506160000 20 191 3.2 6.4 0.03 0.05 0.05 81 1010.6
20260506155241 20 205 3.2 6.4 0.03 0.05 0.05 81 1010.5
20260506154741 19 179 3.2 4.8 0.05 0.05 0.05 83 1010.7
20260506154242 19 157 3.2 4.8 0.05 0.05 0.05 84 1010.8
20260506154004 19 320 3.2 4.8 0.05 0.05 0.05 85 1010.8
20260506153238 19 0 1.6 4.8 0.05 0.05 0.05 86 1010.9
20260506152738 19 307 3.2 4.8 0.05 0.05 0.05 86 1010.9
20260506152227 19 201 3.2 4.8 0.03 0.03 0.03 86 1010.8
20260506151727 19 294 3.2 4.8 0.03 0.03 0.03 86 1010.9
20260506151227 19 160 3.2 4.8 0.03 0.03 0.03 87 1011.0
20260506150713 19 155 3.2 3.2 0.03 0.03 0.03 88 1011.0
20260506150212 19 315 1.6 6.4 0.03 0.03 0.03 88 1011.1
20260506145936 19 185 4.8 8.0 0.03 0.03 0.03 87 1011.2
20260506145200 20 177 4.8 9.7 0.00 0.00 0.00 84 1011.3
20260506144921 20 166 4.8 9.7 0.00 0.00 0.00 82 1011.3
20260506144201 20 193 4.8 9.7 0.00 0.00 0.00 81 1011.2
20260506143658 20 340 4.8 9.7 0.00 0.00 0.00 81 1011.2
20260506143158 20 248 4.8 9.7 0.00 0.00 0.00 81 1010.9
20260506142911 20 166 3.2 6.4 0.00 0.00 0.00 81 1010.8
20260506142156 19 197 3.2 6.4 0.00 0.00 0.00 81 1010.8
20260506141641 19 155 3.2 4.8 0.00 0.00 0.00 82 1010.8
20260506141141 19 166 3.2 4.8 0.00 0.00 0.00 83 1010.8